Location: Moscow
(38.3171°N, 79.0889°W)
Time: 23:25:20
(UTC+00:00)

Cosmos 1818 - Pass Details

Date: 07 November 2025
Orbit: 776 x 795 km, 65.0° (Epoch: 14 December)

Event Time Altitude Azimuth Distance (km) Brightness Sun altitude
Rises 22:30:10 0° 327° (NNW) 3,301 7.0 -4.5°
Reaches altitude 10° 22:32:36 10° 327° (NNW) 2,367 6.3 -5.0°
Maximum altitude 22:38:02 78° 242° (WSW) 814 3.8 -6.0°
Drops below altitude 10° 22:43:26 10° 156° (SSE) 2,347 5.9 -7.0°
Sets 22:45:51 0° 155° (SSE) 3,270 6.7 -7.5°
